Time,TemperatureF,DewpointF,PressureIn,WindDirection,WindDirectionDegrees,WindSpeedMPH,WindSpeedGustMPH,Humidity,HourlyPrecipIn,Conditions,Clouds,dailyrainin,SoftwareType,DateUTC
2013-05-31 00:04:00,65.5,62.0,29.71,SSE,153,20.0,20.0,87,0.00,,,0.48,weatherlink.com 1.10,2013-05-31 05:04:00,
2013-05-31 00:20:00,65.4,62.0,29.71,SE,138,15.0,27.0,87,0.00,,,0.48,weatherlink.com 1.10,2013-05-31 05:20:00,
2013-05-31 00:35:00,65.3,61.0,29.71,SE,144,10.0,26.0,86,0.00,,,0.48,weatherlink.com 1.10,2013-05-31 05:35:00,
2013-05-31 00:50:00,65.2,61.0,29.71,SSE,152,20.0,21.0,86,0.00,,,0.48,weatherlink.com 1.10,2013-05-31 05:50:00,
2013-05-31 01:05:00,65.1,61.0,29.72,SE,136,12.0,24.0,87,0.00,,,0.48,weatherlink.com 1.10,2013-05-31 06:05:00,
2013-05-31 01:20:00,64.9,61.0,29.72,SE,128,16.0,24.0,87,0.00,,,0.48,weatherlink.com 1.10,2013-05-31 06:20:00,
2013-05-31 01:35:00,64.9,61.0,29.72,SSE,167,13.0,21.0,87,0.00,,,0.48,weatherlink.com 1.10,2013-05-31 06:35:00,
2013-05-31 01:50:00,64.7,61.0,29.71,SE,140,20.0,22.0,88,0.00,,,0.48,weatherlink.com 1.10,2013-05-31 06:50:00,
2013-05-31 02:05:00,64.7,61.0,29.71,SE,146,13.0,27.0,88,0.00,,,0.48,weatherlink.com 1.10,2013-05-31 07:05:00,
2013-05-31 02:20:00,64.5,61.0,29.70,SE,140,15.0,22.0,88,0.00,,,0.48,weatherlink.com 1.10,2013-05-31 07:20:00,
2013-05-31 02:35:00,64.5,61.0,29.70,SE,131,11.0,21.0,89,0.00,,,0.48,weatherlink.com 1.10,2013-05-31 07:35:00,
2013-05-31 02:50:00,64.5,61.0,29.70,SSE,165,9.0,24.0,89,0.00,,,0.48,weatherlink.com 1.10,2013-05-31 07:50:00,
2013-05-31 03:05:00,64.4,61.0,29.70,SE,136,12.0,23.0,89,0.00,,,0.48,weatherlink.com 1.10,2013-05-31 08:05:00,
2013-05-31 03:20:00,64.5,61.0,29.70,South,172,9.0,23.0,89,0.00,,,0.48,weatherlink.com 1.10,2013-05-31 08:20:00,
2013-05-31 03:35:00,64.4,61.0,29.69,SSE,157,5.0,19.0,89,0.00,,,0.48,weatherlink.com 1.10,2013-05-31 08:35:00,
2013-05-31 03:50:00,64.5,61.0,29.69,South,174,5.0,19.0,89,0.00,,,0.48,weatherlink.com 1.10,2013-05-31 08:50:00,
2013-05-31 04:05:00,64.6,61.0,29.69,SSE,161,15.0,18.0,88,0.00,,,0.48,weatherlink.com 1.10,2013-05-31 09:05:00,
2013-05-31 04:20:00,64.7,61.0,29.69,SSE,159,9.0,16.0,88,0.00,,,0.48,weatherlink.com 1.10,2013-05-31 09:20:00,
2013-05-31 04:35:00,64.7,62.0,29.72,SSW,198,12.0,15.0,89,0.00,,,0.48,weatherlink.com 1.10,2013-05-31 09:35:00,
2013-05-31 04:50:00,64.5,61.0,29.72,SSE,150,13.0,20.0,89,0.00,,,0.48,weatherlink.com 1.10,2013-05-31 09:50:00,
2013-05-31 05:05:00,64.3,61.0,29.72,SSE,158,13.0,22.0,89,0.00,,,0.48,weatherlink.com 1.10,2013-05-31 10:05:00,
2013-05-31 05:20:00,64.2,61.0,29.71,SE,143,9.0,23.0,89,0.00,,,0.48,weatherlink.com 1.10,2013-05-31 10:20:00,
2013-05-31 05:35:00,64.2,61.0,29.70,ESE,103,6.0,19.0,90,0.00,,,0.48,weatherlink.com 1.10,2013-05-31 10:35:00,
2013-05-31 05:50:00,64.3,61.0,29.70,SSE,167,9.0,16.0,90,0.00,,,0.48,weatherlink.com 1.10,2013-05-31 10:50:00,
2013-05-31 06:05:00,64.5,61.0,29.70,South,188,9.0,15.0,89,0.00,,,0.00,weatherlink.com 1.10,2013-05-31 11:05:00,
2013-05-31 06:20:00,64.6,61.0,29.72,South,190,13.0,19.0,89,0.00,,,0.00,weatherlink.com 1.10,2013-05-31 11:20:00,
2013-05-31 06:35:00,64.6,62.0,29.73,SE,139,5.0,19.0,90,0.00,,,0.00,weatherlink.com 1.10,2013-05-31 11:35:00,
2013-05-31 06:50:00,64.7,62.0,29.73,SSE,159,8.0,13.0,89,0.00,,,0.00,weatherlink.com 1.10,2013-05-31 11:50:00,
2013-05-31 07:05:00,64.9,61.0,29.72,SSE,157,12.0,14.0,88,0.00,,,0.00,weatherlink.com 1.10,2013-05-31 12:05:00,
2013-05-31 07:20:00,65.2,62.0,29.72,SE,136,11.0,18.0,88,0.00,,,0.00,weatherlink.com 1.10,2013-05-31 12:20:00,
2013-05-31 07:35:00,65.9,62.0,29.71,SE,134,10.0,14.0,87,0.00,,,0.00,weatherlink.com 1.10,2013-05-31 12:35:00,
2013-05-31 07:50:00,66.2,62.0,29.72,SSE,158,13.0,20.0,86,0.00,,,0.00,weatherlink.com 1.10,2013-05-31 12:50:00,
2013-05-31 08:05:00,66.3,62.0,29.72,SSE,161,18.0,20.0,87,0.00,,,0.00,weatherlink.com 1.10,2013-05-31 13:05:00,
2013-05-31 08:20:00,66.6,62.0,29.72,SE,146,21.0,22.0,84,0.00,,,0.00,weatherlink.com 1.10,2013-05-31 13:20:00,
2013-05-31 08:35:00,67.1,62.0,29.73,South,172,10.0,22.0,83,0.00,,,0.00,weatherlink.com 1.10,2013-05-31 13:35:00,
2013-05-31 08:50:00,66.9,62.0,29.72,ESE,119,16.0,23.0,84,0.00,,,0.00,weatherlink.com 1.10,2013-05-31 13:50:00,
2013-05-31 09:05:00,67.5,62.0,29.73,South,171,19.0,22.0,83,0.00,,,0.00,weatherlink.com 1.10,2013-05-31 14:05:00,
2013-05-31 09:20:00,67.2,63.0,29.72,SE,142,14.0,23.0,85,0.00,,,0.00,weatherlink.com 1.10,2013-05-31 14:20:00,
2013-05-31 09:35:00,67.6,63.0,29.72,ESE,115,15.0,23.0,84,0.00,,,0.00,weatherlink.com 1.10,2013-05-31 14:35:00,
2013-05-31 09:50:00,68.7,63.0,29.71,SE,141,15.0,26.0,83,0.00,,,0.00,weatherlink.com 1.10,2013-05-31 14:50:00,
2013-05-31 10:05:00,69.1,63.0,29.72,SSE,154,12.0,27.0,81,0.00,,,0.00,weatherlink.com 1.10,2013-05-31 15:05:00,
2013-05-31 10:20:00,69.7,63.0,29.71,SSE,168,25.0,25.0,80,0.00,,,0.00,weatherlink.com 1.10,2013-05-31 15:20:00,
2013-05-31 10:36:00,70.2,63.0,29.71,South,170,12.0,29.0,78,0.00,,,0.00,weatherlink.com 1.10,2013-05-31 15:36:00,
2013-05-31 10:51:00,70.6,63.0,29.70,SSE,162,16.0,29.0,76,0.00,,,0.00,weatherlink.com 1.10,2013-05-31 15:51:00,
2013-05-31 11:06:00,70.8,63.0,29.71,South,187,26.0,31.0,75,0.00,,,0.00,weatherlink.com 1.10,2013-05-31 16:06:00,
2013-05-31 11:21:00,71.1,63.0,29.71,SE,135,9.0,28.0,75,0.00,,,0.00,weatherlink.com 1.10,2013-05-31 16:21:00,
2013-05-31 11:36:00,71.3,63.0,29.71,South,175,21.0,30.0,76,0.00,,,0.00,weatherlink.com 1.10,2013-05-31 16:36:00,
2013-05-31 11:51:00,71.0,63.0,29.71,SSE,151,22.0,32.0,76,0.00,,,0.00,weatherlink.com 1.10,2013-05-31 16:51:00,
2013-05-31 12:06:00,71.9,63.0,29.72,SSE,147,23.0,33.0,74,0.00,,,0.00,weatherlink.com 1.10,2013-05-31 17:06:00,
2013-05-31 12:21:00,71.5,63.0,29.73,SSE,155,24.0,31.0,75,0.00,,,0.00,weatherlink.com 1.10,2013-05-31 17:21:00,
2013-05-31 12:36:00,71.8,64.0,29.72,SSE,157,18.0,28.0,75,0.00,,,0.00,weatherlink.com 1.10,2013-05-31 17:36:00,
2013-05-31 12:51:00,72.5,64.0,29.72,SSE,157,15.0,25.0,74,0.00,,,0.00,weatherlink.com 1.10,2013-05-31 17:51:00,
2013-05-31 13:06:00,73.7,65.0,29.70,SE,138,8.0,24.0,73,0.00,,,0.00,weatherlink.com 1.10,2013-05-31 18:06:00,
2013-05-31 13:21:00,74.2,64.0,29.70,SSE,167,14.0,23.0,70,0.00,,,0.00,weatherlink.com 1.10,2013-05-31 18:21:00,
2013-05-31 13:36:00,75.4,64.0,29.69,SE,130,21.0,27.0,67,0.00,,,0.00,weatherlink.com 1.10,2013-05-31 18:36:00,
2013-05-31 13:51:00,76.7,63.0,29.69,ESE,107,14.0,25.0,63,0.00,,,0.00,weatherlink.com 1.10,2013-05-31 18:51:00,
2013-05-31 14:06:00,77.7,63.0,29.69,SE,136,21.0,28.0,60,0.00,,,0.00,weatherlink.com 1.10,2013-05-31 19:06:00,
2013-05-31 14:21:00,78.3,62.0,29.68,SE,127,14.0,27.0,57,0.00,,,0.00,weatherlink.com 1.10,2013-05-31 19:21:00,
2013-05-31 14:36:00,79.6,61.0,29.67,South,183,6.0,28.0,54,0.00,,,0.00,weatherlink.com 1.10,2013-05-31 19:36:00,
2013-05-31 14:51:00,79.2,59.0,29.67,SSW,193,19.0,34.0,51,0.00,,,0.00,weatherlink.com 1.10,2013-05-31 19:51:00,
2013-05-31 15:06:00,78.2,59.0,29.67,SSE,160,13.0,30.0,52,0.00,,,0.00,weatherlink.com 1.10,2013-05-31 20:06:00,
2013-05-31 15:21:00,78.7,60.0,29.66,South,181,18.0,29.0,52,0.00,,,0.00,weatherlink.com 1.10,2013-05-31 20:21:00,
2013-05-31 15:36:00,78.8,60.0,29.65,South,169,14.0,31.0,52,0.00,,,0.00,weatherlink.com 1.10,2013-05-31 20:36:00,
2013-05-31 16:06:00,78.3,61.0,29.64,SE,136,15.0,33.0,55,0.00,,,0.00,weatherlink.com 1.10,2013-05-31 21:06:00,
2013-05-31 16:21:00,77.9,61.0,29.65,SSE,161,18.0,33.0,56,0.00,,,0.00,weatherlink.com 1.10,2013-05-31 21:21:00,
2013-05-31 16:36:00,78.2,61.0,29.64,South,171,22.0,29.0,56,0.00,,,0.00,weatherlink.com 1.10,2013-05-31 21:36:00,
2013-05-31 16:51:00,78.0,61.0,29.64,South,174,27.0,35.0,57,0.00,,,0.00,weatherlink.com 1.10,2013-05-31 21:51:00,
2013-05-31 17:06:00,78.5,61.0,29.64,SSE,168,11.0,27.0,56,0.00,,,0.00,weatherlink.com 1.10,2013-05-31 22:06:00,
2013-05-31 17:21:00,77.9,61.0,29.64,SSE,157,20.0,28.0,57,0.00,,,0.00,weatherlink.com 1.10,2013-05-31 22:21:00,
2013-05-31 17:36:00,77.2,62.0,29.64,SSE,150,16.0,29.0,59,0.00,,,0.00,weatherlink.com 1.10,2013-05-31 22:36:00,
2013-05-31 17:51:00,76.5,62.0,29.64,South,171,15.0,27.0,61,0.00,,,0.00,weatherlink.com 1.10,2013-05-31 22:51:00,
2013-05-31 18:06:00,75.8,62.0,29.64,SSE,157,18.0,26.0,63,0.00,,,0.00,weatherlink.com 1.10,2013-05-31 23:06:00,
2013-05-31 18:21:00,76.7,63.0,29.64,SSE,162,9.0,26.0,62,0.00,,,0.00,weatherlink.com 1.10,2013-05-31 23:21:00,
2013-05-31 18:36:00,75.7,62.0,29.64,South,182,23.0,27.0,63,0.00,,,0.00,weatherlink.com 1.10,2013-05-31 23:36:00,
2013-05-31 18:51:00,75.1,62.0,29.64,SSE,165,21.0,29.0,63,0.00,,,0.00,weatherlink.com 1.10,2013-05-31 23:51:00,
2013-05-31 19:06:00,74.9,62.0,29.64,SSE,153,14.0,26.0,64,0.00,,,0.00,weatherlink.com 1.10,2013-06-01 00:06:00,
2013-05-31 19:21:00,74.3,62.0,29.65,South,178,25.0,25.0,66,0.00,,,0.00,weatherlink.com 1.10,2013-06-01 00:21:00,
2013-05-31 19:36:00,74.0,62.0,29.65,SSE,156,9.0,22.0,66,0.00,,,0.00,weatherlink.com 1.10,2013-06-01 00:36:00,
2013-05-31 19:51:00,73.7,62.0,29.66,SE,126,9.0,18.0,67,0.00,,,0.00,weatherlink.com 1.10,2013-06-01 00:51:00,
2013-05-31 20:06:00,73.5,62.0,29.67,South,183,13.0,16.0,68,0.00,,,0.00,weatherlink.com 1.10,2013-06-01 01:06:00,
2013-05-31 20:21:00,73.1,62.0,29.66,SSE,161,11.0,18.0,69,0.00,,,0.00,weatherlink.com 1.10,2013-06-01 01:21:00,
2013-05-31 20:36:00,72.7,63.0,29.66,SSE,153,11.0,16.0,71,0.00,,,0.00,weatherlink.com 1.10,2013-06-01 01:36:00,
2013-05-31 20:51:00,72.2,63.0,29.65,SE,126,10.0,16.0,73,0.00,,,0.00,weatherlink.com 1.10,2013-06-01 01:51:00,
2013-05-31 21:06:00,71.1,63.0,29.65,SSE,148,10.0,13.0,76,0.00,,,0.00,weatherlink.com 1.10,2013-06-01 02:06:00,
2013-05-31 21:21:00,70.5,64.0,29.65,SE,131,7.0,15.0,80,0.01,,,0.01,weatherlink.com 1.10,2013-06-01 02:21:00,
2013-05-31 21:36:00,71.0,63.0,29.65,SE,142,10.0,19.0,77,0.01,,,0.01,weatherlink.com 1.10,2013-06-01 02:36:00,
2013-05-31 21:51:00,71.3,63.0,29.65,ESE,120,14.0,22.0,76,0.01,,,0.01,weatherlink.com 1.10,2013-06-01 02:51:00,
2013-05-31 22:06:00,71.4,64.0,29.67,SSE,154,6.0,16.0,76,0.01,,,0.01,weatherlink.com 1.10,2013-06-01 03:06:00,
2013-05-31 22:21:00,70.4,64.0,29.67,South,173,8.0,18.0,79,0.00,,,0.01,weatherlink.com 1.10,2013-06-01 03:21:00,
2013-05-31 22:36:00,69.7,63.0,29.68,SSE,150,10.0,15.0,80,0.00,,,0.01,weatherlink.com 1.10,2013-06-01 03:36:00,
2013-05-31 22:51:00,69.5,63.0,29.67,SE,144,8.0,18.0,81,0.00,,,0.01,weatherlink.com 1.10,2013-06-01 03:51:00,
2013-05-31 23:06:00,69.4,63.0,29.68,SE,139,12.0,16.0,81,0.00,,,0.01,weatherlink.com 1.10,2013-06-01 04:06:00,
2013-05-31 23:21:00,69.3,63.0,29.69,SE,130,7.0,15.0,81,0.00,,,0.01,weatherlink.com 1.10,2013-06-01 04:21:00,
2013-05-31 23:36:00,69.3,64.0,29.70,West,264,7.0,11.0,82,0.00,,,0.01,weatherlink.com 1.10,2013-06-01 04:36:00,
2013-05-31 23:52:00,67.9,53.0,29.72,West,265,18.0,33.0,60,0.00,,,0.01,weatherlink.com 1.10,2013-06-01 04:52:00,